COSMOS 1275 DEB, 17627

Orbit data source: Space-Track

COSMOS 1275 DEB, 17627 is space debris in LEO originally from a launch on Thu, 04 Jun 1981 UTC launched from the Plesetsk Missile And Space Complex (PKMTR). Debris objects in space refer to the collection of defunct objects orbiting the Earth. Examples of debris include non-operational satellites, rocket bodies, and fragments generated from explosions, collisions, or faulty payload assembly.

Loading next visibility...
Identifier
17627, 1981-053KW
Orbit
LEO
Country
Flag of CISCIS
Related business
Manufacturer
Unknown
Mission
Spacecraft
Bus & Motor
Unknown
Mass
Unknown
Launch date (UTC)
1981-06-04 (45 years ago)
Launch vehicle
Unknown
Launch site
Plesetsk Missile And Space Complex (PKMTR)
Object type
Payload
Rocket body
Debris
Shape & HBR
Unknown shape, 0.1 m
Radar Cross Section
Small (<0.1 m²)

Expand to show TLE details & history
Last TLE update: 1 day ago

TLE from 1 day ago
0 COSMOS 1275 DEB
1 17627U 81053KW  26036.60469468  .00001387  00000-0  91406-3 0  9992
2 17627  82.9206  97.3280 0049165  92.2912 268.3888 14.00531216 67202
Epoch: 2026-02-05T14:30Z
TLE epoch observation values (Epoch: 2026-02-05T14:30:45.620Z)
Latitude
-0.0001°
Longitude
103.88337°
Altitude
896.072 km
Speed
7.403 km/s
True Right ascension
06h 29m 18s
True Declination
0° 00' 00"
Sunlit
Object was in full shadow at epoch
Visualization orbit readout
Latitude
Unknown
Longitude
Unknown
Altitude
Unknown
Speed
Unknown
Apparent Right ascension
Unknown
Apparent Declination
Unknown
Sunlit
N/A
Visualization observer readout
Local Sidereal Time
17:22:59
Azimuth
Unknown
Elevation
Unknown
Doppler factor
Unknown
Orbital elements
Apogee altitude
924.8 km
Perigee altitude
853.341 km
Semi-major axis
7,267.208 km
Eccentricity
0.00492
Inclination
82.9206°
RAAN
97.328°
Arg. of periapsis
92.2912°
True anomaly
267.82574°
Mean anomaly
268.3888°
Eccentric anomaly
268.10726°
Mean motion
3.50342 °/min
Orbital period
102.76 mins
BSTAR
0.00091406
Loading maneuver chart data...
Computing Atmospheric mass density...
Loading historical data...
Loading historical data...
Loading historical data...
Loading historical data...
Loading historical data...
Loading historical data...
Loading historical data...

Documentation

Showing up to 5 results
|